AO-07 1 07530U 74089B 26122.01179338 -.00000042 00000-0 28922-4 0 9992 2 07530 101.9925 134.7737 0012014 217.8444 167.2097 12.53697383354735 UO-11 1 14781U 84021B 26122.44363095 .00001494 00000-0 15802-3 0 9990 2 14781 97.8027 88.5429 0007182 347.5235 12.5804 14.90673857250310 AO-27 1 22825U 93061C 26122.12958426 .00000104 00000-0 56775-4 0 9997 2 22825 98.6898 189.5544 0007505 230.3562 129.6959 14.30929457700410 FO-29 1 24278U 96046B 26122.32268288 .00000002 00000-0 39006-4 0 9994 2 24278 98.5292 337.4636 0349247 215.3240 142.4304 13.53272154466960 GO-32 1 25397U 98043D 26122.40629657 .00000066 00000-0 48540-4 0 9999 2 25397 99.0063 114.0137 0001524 33.5889 326.5386 14.24419262444819 ISS 1 25544U 98067A 26122.39338617 .00006924 00000-0 13339-3 0 9996 2 25544 51.6309 166.7723 0007240 14.7888 345.3311 15.49060784564657 NO-44 1 26931U 01043C 26122.13090712 .00000151 00000-0 87099-4 0 9999 2 26931 67.0525 3.3941 0006422 263.8951 96.1419 14.31938008283859 SO-50 1 27607U 02058C 26122.43460711 .00001296 00000-0 16995-3 0 9997 2 27607 64.5517 270.5300 0075627 270.7925 88.4516 14.82946242257679 CO-55 1 27844U 03031E 26122.44576793 .00000316 00000-0 15566-3 0 9996 2 27844 98.6752 131.5782 0008782 324.7930 35.2667 14.24306931185167 RS-22 1 27939U 03042A 26122.51315840 .00001147 00000-0 18513-3 0 9993 2 27939 98.3462 305.5849 0012376 57.0767 26.7451 14.73386053208824 CO-65 1 32785U 08021C 26122.50123001 .00006213 00000-0 39659-3 0 9998 2 32785 97.8254 102.9930 0009019 173.7424 186.3918 15.09016571978301 CO-66 1 32791U 08021J 26122.41232399 .00019219 00000-0 63952-3 0 9999 2 32791 97.7522 118.1846 0005083 105.2541 254.9261 15.31188913980285 RS-30 1 32953U 08025A 26122.46739204 .00000061 00000-0 37005-3 0 9990 2 32953 82.5084 23.8772 0020578 52.2562 308.0379 12.43177862814019 SRMSAT 1 37841U 11058D 26122.29062612 .00000431 00000-0 89969-4 0 9992 2 37841 19.9735 337.2734 0011772 59.3193 96.4593 14.11565063751322 ZACUBE-1 1 39417U 13066B 26122.40972096 .00005981 00000-0 46630-3 0 9995 2 39417 97.8128 84.5000 0043410 46.7665 313.7170 15.00818689673862 Delfi-N3xt 1 39428U 13066N 26122.25765441 .00011189 00000-0 98338-3 0 9993 2 39428 97.8354 42.6290 0075350 1.1801 358.9583 14.94527879667767 GOMX-1 1 39430U 13066Q 26122.49180067 .00002046 00000-0 31389-3 0 9992 2 39430 97.6510 325.8341 0127824 223.8408 135.2598 14.69284498663201 LO-74 1 39440U 13066AA 26122.37275932 .00003101 00000-0 29136-3 0 9996 2 39440 97.8882 71.1799 0057886 177.8565 182.2913 14.93431957670152 AO-73 1 39444U 13066AE 26122.37402617 .00009849 00000-0 61935-3 0 9990 2 39444 97.8256 92.8932 0036724 3.2162 356.9295 15.08870936672755 DTUSAT-2 1 40030U 14033W 26122.52389479 .00008709 00000-0 47754-3 0 9992 2 40030 98.0867 117.3766 0008959 41.7235 318.4677 15.14415215645775 LILACSAT-2 1 40908U 15049K 26122.51986708 .00018028 00000-0 32331-3 0 9991 2 40908 97.4708 157.6643 0008513 68.9145 291.3015 15.49946101588675 Horyu-4 1 41340U 16012D 26122.16888456 .00177877 00000-0 11232-2 0 9999 2 41340 30.9896 50.7648 0006336 293.7685 66.2307 15.74968168563516 Lapan A3 1 41603U 16040E 26122.49795390 .00004170 00000-0 13377-3 0 9990 2 41603 97.1487 120.1576 0010572 168.8856 191.2622 15.32809361547817 CAS-2T 1 41847U 16066G 26122.45671265 .00000713 00000-0 11055-3 0 9998 2 41847 98.3829 198.7093 0340899 268.3175 87.8949 14.44576230498199 TechnoSat 1 42829U 17042E 26122.43382288 .00003734 00000-0 26887-3 0 9991 2 42829 97.4241 281.8560 0016016 247.5963 112.3568 15.04681122479820 AO-91 1 43017U 17073E 26122.35463941 .00010044 00000-0 44184-3 0 9994 2 43017 97.4768 350.5258 0154301 126.4391 235.1178 15.11882760458469 S-Net D 1 43186U 18014G 26122.27195959 .00006283 00000-0 32808-3 0 9999 2 43186 97.5402 27.3575 0008578 165.4348 194.7133 15.16240750451806 S-Net B 1 43187U 18014H 26122.28251755 .00006490 00000-0 33899-3 0 9999 2 43187 97.5405 27.3531 0009335 161.9687 198.1879 15.16210738451809 S-Net A 1 43188U 18014J 26122.27106141 .00006273 00000-0 32747-3 0 9997 2 43188 97.5416 27.5422 0009207 162.4966 197.6586 15.16247578451808 S-Net C 1 43189U 18014K 26122.28614086 .00006530 00000-0 34102-3 0 9994 2 43189 97.5430 27.6246 0010744 157.2241 202.9471 15.16201934450354 Ten-Koh 1 43677U 18084G 26122.44826844 .00002348 00000-0 18060-3 0 9996 2 43677 98.0786 312.8912 0007351 271.4827 88.5555 15.02746998409291 PO-101 1 43678U 18084H 26122.48522295 .00003971 00000-0 32215-3 0 9995 2 43678 98.1070 316.7445 0012742 328.2562 31.7891 15.00227033409363 QO-100 1 43700U 18090A 26120.49191795 .00000147 00000-0 00000-0 0 9990 2 43700 0.0137 266.9736 0001700 165.7205 348.6817 1.00277015 27199 MinXSS-2 1 43758U 18099A 26122.44102544 .00036916 00000-0 80922-3 0 9990 2 43758 97.4560 197.4911 0008531 79.3903 280.8305 15.43960495407069 AO-95 1 43770U 18099N 26122.44464981 .00013036 00000-0 51301-3 0 9997 2 43770 97.4415 182.8878 0010095 142.8587 217.3351 15.25718835406248 SNUSat 2 1 43782U 18099AA 26122.09841520 .00009897 00000-0 44672-3 0 9992 2 43782 97.4096 176.2066 0011999 98.4318 261.8278 15.21124524406024 SnugLite 1 43784U 18099AC 26122.13104176 .00012275 00000-0 47730-3 0 9990 2 43784 97.3907 176.8910 0004560 96.9246 263.2511 15.26169379406296 ITASat 1 1 43786U 18099AE 26122.09915279 .00008053 00000-0 39307-3 0 9991 2 43786 97.4064 174.5423 0013754 148.3517 211.8547 15.18457236405914 EAGLET 1 1 43790U 18099AJ 26122.41168964 .00005104 00000-0 29559-3 0 9995 2 43790 97.4267 173.2958 0012427 138.5081 221.7095 15.12587044405414 ESEO 1 43792U 18099AL 26122.07939166 .00001027 00000-0 78237-4 0 9997 2 43792 97.4006 161.4377 0013383 125.9803 234.2667 15.04098405404877 JO-97 1 43803U 18099AX 26122.13968295 .00017768 00000-0 57302-3 0 9990 2 43803 97.4160 184.8599 0007154 82.4042 277.8012 15.32194856406571 Suomi 100 1 43804U 18099AY 26122.42676950 .00012954 00000-0 48481-3 0 9997 2 43804 97.4220 183.0200 0011672 85.6458 274.6115 15.27373855406431 ISAT 1 43879U 18111D 26122.33997172 .00076451 00000-0 10059-2 0 9997 2 43879 97.5910 54.3127 0008749 103.4989 256.7241 15.58173882404012 UWE-4 1 43880U 18111E 26122.28520385 .00036031 00000-0 80539-3 0 9992 2 43880 97.5866 48.6667 0010426 121.5671 238.6595 15.43366879403691 Sparrow 1 43881U 18111F 26122.26135291 .00111490 00000-0 11736-2 0 9994 2 43881 97.6135 59.1719 0007215 122.4463 237.7494 15.63895337404178 Prox-1 1 44339U 19036A 26122.18447395 .00017279 00000-0 17384-2 0 9997 2 44339 23.9958 61.2699 0006503 218.2723 141.7315 14.89520827366602 Taurus 1 1 44530U 19059C 26122.55851661 .00006999 00000-0 11326-2 0 9998 2 44530 98.6377 284.5839 0009803 97.9674 262.2644 14.71598195351936 TO-108 1 44881U 19093C 26122.47283630 .00000703 00000-0 85565-4 0 9996 2 44881 97.7547 195.8181 0012302 234.4531 125.5539 14.86442685344626 RS-44 1 44909U 19096E 26122.42539860 .00000027 00000-0 70101-4 0 9993 2 44909 82.5256 10.1162 0216422 251.3187 106.4311 12.79748007296492 SALSAT 1 46495U 20068K 26122.21729458 .00009803 00000-0 34900-3 0 9994 2 46495 97.8855 122.5095 0011689 102.5518 257.7029 15.29117321308334 CSS (TIANHE-1) 1 48274U 21035A 26122.48729455 .00024924 00000-0 26765-3 0 9993 2 48274 41.4673 240.1810 0005738 316.5586 43.4802 15.63173931286023 CUTE 1 49263U 21088D 26122.24605788 .00077243 00000-0 50922-3 0 9990 2 49263 97.4210 217.7855 0000716 150.3149 209.8157 15.75409379255285 TeikyoSat 4 1 49396U 21102B 26122.04739076 .00002067 00000-0 13314-3 0 9996 2 49396 97.3703 153.3213 0013746 92.3451 267.9353 15.09339672245769 Z-Sat 1 49399U 21102E 26122.51918141 .00005224 00000-0 25974-3 0 9996 2 49399 97.3362 159.2309 0018047 50.7340 309.5492 15.17915711246512 KOSEN 1 1 49402U 21102H 26122.38678579 .00008572 00000-0 33313-3 0 9999 2 49402 97.3225 165.4459 0013968 17.4182 342.7533 15.26203821247036 HO-113 1 50466U 21131B 26122.51488428 .00000548 00000-0 18306-3 0 9990 2 50466 98.4960 215.1584 0003214 222.2887 137.8054 14.41313047228532 SNUGLITE 2 1 52899U 22065F 26122.38486051 .00001115 00000-0 22068-3 0 9995 2 52899 98.2137 267.3150 0007973 158.9947 201.1584 14.64259845204294 UmKA 1 (RS40S) 1 57172U 23091G 26122.42309588 .00006147 00000-0 28565-3 0 9996 2 57172 97.5083 181.3064 0011178 279.7601 80.2371 15.20300715157052 CubeBel-2 (EU11S) 1 57175U 23091K 26122.42595215 .00013151 00000-0 48194-3 0 9996 2 57175 97.5080 185.2664 0008396 275.6268 84.4014 15.28099079157318 RS-38S 1 57189U 23091Z 26122.45817466 .00017591 00000-0 52636-3 0 9997 2 57189 97.5114 191.0744 0006648 222.4215 137.6515 15.34590088157674 SONATE-2 1 59112U 24043Q 26122.37972006 .00041547 00000-0 60722-3 0 9999 2 59112 97.5485 270.1015 0006457 15.5941 344.5511 15.55502986120766 GRBBeta 1 60237U 24128C 26122.42010208 .00004515 00000-0 31325-3 0 9997 2 60237 61.9921 16.7941 0046413 125.0558 235.4902 15.06267752 99374 Curium One 1 60242U 24128H 26122.41028625 .00009388 00000-0 54593-3 0 9999 2 60242 61.9803 7.8168 0045978 121.6634 238.8958 15.11777258 99532 ROBUSTA-3A 1 60243U 24128J 26122.41616657 .00009242 00000-0 54930-3 0 9992 2 60243 61.9884 10.0177 0047052 119.1032 241.4786 15.10963061 99501 CatSat 1 60246U 24125J 26122.41796686 .00051611 00000-0 78919-3 0 9993 2 60246 97.2128 334.4880 0022672 355.7047 4.4009 15.53934384100271 HYPERVIEW-1G (RS66S) 1 61772U 24199AP 26122.44055779 .00093709 00000-0 90137-3 0 9993 2 61772 97.2965 0.1989 0008898 91.0013 269.2266 15.66219470127494 AO-123 1 61781U 24199AY 26122.41210824 .00008678 00000-0 25688-3 0 9994 2 61781 97.3061 351.5039 0015802 111.0247 249.2689 15.35001719126909 JINJUSat 1B 1 63210U 25052A 26122.44710198 .00018202 00000-0 58914-3 0 9996 2 63210 97.4057 19.1810 0001612 214.5707 145.5430 15.32095293 63091 NUSHSAT 1 1 63211U 25052B 26122.42841635 .00021643 00000-0 65476-3 0 9990 2 63211 97.4035 19.5833 0001284 213.0159 147.1003 15.34216357 63123 TEVEL2-4 1 63213U 25052D 26122.44838547 .00020125 00000-0 63228-3 0 9999 2 63213 97.3955 18.8104 0000252 248.4422 111.6794 15.33029899 63100 TEVEL2-5 1 63214U 25052E 26121.68074363 .00022075 00000-0 69709-3 0 9999 2 63214 97.3955 18.0031 0000337 285.9180 74.2025 15.32846989 62985 TEVEL2-6 1 63215U 25052F 26122.21419617 .00021010 00000-0 66395-3 0 9991 2 63215 97.3956 18.5214 0000439 266.3780 93.7412 15.32833722 63064 TEVEL2-1 1 63217U 25052H 26122.22815300 .00020966 00000-0 67254-3 0 9997 2 63217 97.3931 18.2119 0000818 335.5708 24.5495 15.32354313 63056 TEVEL2-3 1 63218U 25052J 26122.22430150 .00020796 00000-0 66619-3 0 9999 2 63218 97.3934 18.2246 0000836 335.0046 25.1155 15.32400095 63050 TEVEL2-2 1 63219U 25052K 26121.96746854 .00019275 00000-0 61881-3 0 9997 2 63219 97.3934 17.9531 0000899 336.0550 24.0650 15.32344787 63013 TEVEL2-9 1 63237U 25052AD 26122.21411286 .00019827 00000-0 67355-3 0 9999 2 63237 97.3994 17.6692 0004577 319.9842 40.1061 15.30507450 62992 TEVEL2-7 1 63238U 25052AE 26122.37753745 .00017917 00000-0 61384-3 0 9990 2 63238 97.3997 17.7662 0004649 319.4615 40.6279 15.30252024 63011 TEVEL2-8 1 63239U 25052AF 26122.45066561 .00017926 00000-0 61447-3 0 9993 2 63239 97.3993 17.8176 0004659 320.0858 40.0040 15.30235694 63022 HYDRA-W 1 63490U 25052BL 26113.93882235 .05662091 24406-5 29537-2 0 9997 2 63490 97.3690 18.2798 0008685 203.5899 156.4993 16.20186780 62336 HADES-ICM (SO-125) 1 63492U 25052BN 26122.45157171 .00534473 00000-0 24425-2 0 9997 2 63492 97.3818 25.6886 0005430 158.1774 201.9727 15.82372999 63565 SPIRONE 1 66657U 25274H 26122.22548051 .00003096 00000-0 30016-3 0 9991 2 66657 97.7479 52.1840 0012609 159.5664 200.6062 14.93357708 23366 K-HERO 1 66660U 25274L 26122.24307455 .00001863 00000-0 18079-3 0 9993 2 66660 97.7485 52.3281 0014240 165.3327 194.8309 14.93788067 23377 SNUGLITE-III DURI 1 66661U 25274M 26122.36634578 .00001921 00000-0 18598-3 0 9997 2 66661 97.7480 52.4684 0014853 166.1010 194.0621 14.93846690 23397 SilverSat 1 66909U 98067XV 26113.44966717 .07226154 12288-4 11979-2 0 9998 2 66909 51.6027 190.0749 0007952 333.4666 26.5949 16.32457272 22308 SAKHACUBE-CHOLBON 1 67290U 25313AU 26122.14679712 .00012789 00000-0 52910-3 0 9995 2 67290 97.3948 197.7847 0010420 151.2096 208.9718 15.24038521 18960 RS95S (QMR-KWT-2) 1 67291U 25313AV 26122.10601110 .00015523 00000-0 62197-3 0 9996 2 67291 97.3943 197.8370 0010228 150.8456 209.3355 15.25073442 18963 Ten-Koh2 1 68261U 25241B 26122.42936281 .00007053 00000-0 30672-3 0 9991 2 68261 51.6491 177.3269 0005886 357.7603 2.3348 15.23311591 7934 JACK-002 1 68417U 26067B 26122.38125828 .00007943 00000-0 38466-3 0 9990 2 68417 97.4542 81.5690 0004069 84.7856 275.3843 15.18817497 4990 DISCO 2 1 68431U 26067R 26122.39105203 .00008810 00000-0 43138-3 0 9998 2 68431 97.4578 81.5723 0003765 124.7548 235.4041 15.18399921 4991 HADES-SA (SpinnyONE) 1 68446U 26067AG 26122.35045759 .00018461 00000-0 92130-3 0 9998 2 68446 97.4391 81.3980 0005391 216.6557 143.4308 15.17543693 4979 PARUS-6U1 1 68456U 26067AS 26122.41906691 .00006481 00000-0 33086-3 0 9991 2 68456 97.4530 81.5142 0004580 204.4596 155.6420 15.17037983 4996 SAL-E 1 68458U 26067AU 26122.41903392 .00008931 00000-0 45367-3 0 9995 2 68458 97.4457 81.4844 0004469 215.7650 144.3285 15.17107194 4992 FSI-SAT 2 1 68792U 26088A 26115.68414791 .00000849 00000-0 61705-4 0 9995 2 68792 97.4990 266.2992 0012809 287.5176 72.4651 15.06389719 389 OrigamiSat 2 1 68795U 26088D 26113.82356135 .00001590 00000-0 10758-3 0 9994 2 68795 97.5008 264.4888 0014430 266.4157 93.5420 15.07861282 103 ARICA 2 1 68796U 26088E 26113.82352201 .00001593 00000-0 10752-3 0 9992 2 68796 97.4989 264.4863 0014541 264.6248 95.3321 15.07951070 103 WASEDA-SAT-ZERO-II 1 68797U 26088F 26113.82350997 .00001596 00000-0 10767-3 0 9992 2 68797 97.5012 264.4822 0014814 262.4592 97.4954 15.07975758 102 MANGARO-II-Piscus 1 68798U 26088G 26113.82334568 .00001591 00000-0 10611-3 0 9992 2 68798 97.4999 264.4888 0017891 266.9056 93.0125 15.08353756 101 IO-86 1 40931U 25360.30710720 .00000000 00000-0 12800-3 0 00 2 40931 6.0006 332.5373 0012733 338.8432 8.1437 14.79075515 01 LILIUM-4 1 71922C 26067AC 26089.50133053 -.00014632 00000 0 -74472-3 0 04 2 71922 97.4497 49.1617 0004341 5.9603 355.7042 15.16896692 16